Starlink 31280

operational
NORAD ID: 58843 Int'l Des: 2024-017 Owner: SPXS Country: US Constellation: starlink
LEOCIRCULAR

Über Starlink 31280

Beschreibung wird geladen...

Live-Position

3D-Globus wird geladen...

Nächste Überflüge

Höhenverlauf

Altitude vs Time

uPlot chart will show altitude changes over time

Zweizeiliger Elementsatz

1 58843U 24017T 25258.38311732 .00001067 00000-0 48152-4 0 9990
2 58843 53.1597 298.7672 0001275 81.7880 278.3266 15.30196595 93211
Epoch: 15. Sept. 2025 • Age: 19 hours

Aktueller Status

Höhe 480.1 km
Geschwindigkeit 7.63 km/s
Subsatellitenpunkt 49.72°N, 63.53°W
Startdatum 24. Jan. 2024
Alter 1.6 years
Typ internet

Technische Details

Klassifizierung Payload
Masse 730.00 kg
Trockenmasse 700.00 kg
Gesamtmasse 730.00 kg
Länge 0.30 m
Durchmesser 4.10 m
Spannweite 29.00 m
Form Box + pan
Hersteller SPXS
Bus-Typ Starlink V2M
Phasenstatus In Orbit
Besitzer/Staat SPXS/US

Große Konstellationen

Loading constellations...